COSMOS 1275 DEB, 42167

Orbit data source: Space-Track

COSMOS 1275 DEB, 42167 is space debris in LEO originally from a launch on Thu, 04 Jun 1981 UTC launched from the Plesetsk Missile And Space Complex (PKMTR). Debris objects in space refer to the collection of defunct objects orbiting the Earth. Examples of debris include non-operational satellites, rocket bodies, and fragments generated from explosions, collisions, or faulty payload assembly.

Loading next visibility...
Identifier
42167, 1981-053SF
Orbit
LEO
Country
Flag of CISCIS
Related business
Manufacturer
Unknown
Mission
Spacecraft
Bus & Motor
Unknown
Mass
Unknown
Launch date (UTC)
1981-06-04 (45 years ago)
Launch vehicle
Unknown
Launch site
Plesetsk Missile And Space Complex (PKMTR)
Object type
Payload
Rocket body
Debris
Shape & HBR
Unknown shape, 0.1 m
Radar Cross Section
Small (<0.1 m²)

Expand to show TLE details & history
Last TLE update: 3 weeks ago

TLE from 3 weeks ago
0 COSMOS 1275 DEB
1 42167U 81053SF  26124.60857568  .00000738  00000-0  64218-3 0  9999
2 42167  82.8379  76.9238 0056059 317.8666  41.8191 13.84081512627468
Epoch: 2026-05-04T14:36Z
TLE epoch observation values (Epoch: 2026-05-04T14:36:20.938Z)
Latitude
-0.00007°
Longitude
-4.65878°
Altitude
921.839 km
Speed
7.406 km/s
True Right ascension
05h 07m 41s
True Declination
0° 00' 00"
Sunlit
Object was in daylight at epoch
Visualization orbit readout
Latitude
Unknown
Longitude
Unknown
Altitude
Unknown
Speed
Unknown
Apparent Right ascension
Unknown
Apparent Declination
Unknown
Sunlit
N/A
Visualization observer readout
Local Sidereal Time
07:19:58
Azimuth
Unknown
Elevation
Unknown
Doppler factor
Unknown
Orbital elements
Apogee altitude
987.648 km
Perigee altitude
905.524 km
Semi-major axis
7,324.723 km
Eccentricity
0.00561
Inclination
82.8379°
RAAN
76.9238°
Arg. of periapsis
317.8666°
True anomaly
42.24968°
Mean anomaly
41.8191°
Eccentric anomaly
42.03416°
Mean motion
3.46223 °/min
Orbital period
103.98 mins
BSTAR
0.00064218
Loading maneuver chart data...
Computing Atmospheric mass density...
Loading historical data...
Loading historical data...
Loading historical data...
Loading historical data...
Loading historical data...
Loading historical data...
Loading historical data...

Documentation

Showing up to 5 results
|